Weather History for Albertville, AL

Change the Weather History Date:

Saturday, February 15, 2014

  Actual Average (KGAD) Record (KGAD)
Temperature  
Mean Temperature 36 °F -  
Max Temperature 41 °F 55 °F 78 °F (1945)
Min Temperature 30 °F 34 °F 13 °F (1943)
Degree Days  
Heating Degree Days 30    
Moisture  
Dew Point 29 °F    
Average Humidity 79    
Maximum Humidity 100    
Minimum Humidity 57    
Precipitation  
Precipitation 0.00 in - - ()
Sea Level Pressure  
Sea Level Pressure 30.05 in    
Wind  
Wind Speed 12 mph (NNW)    
Max Wind Speed 24 mph    
Max Gust Speed 36 mph    
Visibility 10 miles    
Events      
Averages and records for this station are not official NWS values.
T = Trace of Precipitation, MM = Missing Value Source: NWS Daily Summary

Daily Weather History Graph

Daily Weather History Graph

Search for Another Location

Airport:

Trip Planner

Search our weather history database for the weather conditions in past years. The results will help you decide how hot, cold, wet, or windy it might be!

Date:

Astronomy

Feb. 15, 2014 Rise Set
Actual Time 6:29 AM CST 5:28 PM CST
Civil Twilight 6:04 AM CST 5:54 PM CST
Nautical Twilight 5:34 AM CST 6:23 PM CST
Astronomical Twilight 5:05 AM CST 6:53 PM CST
Moon 6:23 PM CST (2/15) 6:32 AM CST (2/15)
Length of Visible Light 11h 50m
Length of Day
10h 58m
Waxing Gibbous, 99% of the Moon is Illuminated
Feb 15
Waxing Gibbous
Feb 22
Last Quarter
Mar 1
New
Mar 8
First Quarter
Mar 16
Full

Hourly Weather History & Observations

Time (CST) Temp. Windchill Dew Point Humidity Pressure Visibility Wind Dir Wind Speed Gust Speed Precip Events Conditions
12:15 AM 39.2 °F 30.2 °F 39.2 °F 100% 29.78 in 10.0 mi WNW 17.3 mph 35.7 mph N/A   Overcast
12:35 AM 37.4 °F 26.1 °F 37.4 °F 100% 29.80 in 10.0 mi NW 24.2 mph 35.7 mph N/A   Overcast
12:55 AM 35.6 °F 24.8 °F 35.6 °F 100% 29.81 in 7.0 mi WNW 19.6 mph 29.9 mph N/A   Overcast
1:15 AM 33.8 °F 23.5 °F - N/A% 29.84 in 7.0 mi NW 16.1 mph 32.2 mph N/A   Overcast
1:35 AM 33.8 °F 23.2 °F - N/A% 29.85 in 7.0 mi NW 17.3 mph 26.5 mph N/A   Overcast
1:55 AM 33.8 °F 25.3 °F - N/A% 29.87 in 10.0 mi NW 11.5 mph 27.6 mph N/A   Overcast
2:15 AM 32.0 °F 20.5 °F - N/A% 29.88 in 10.0 mi NW 18.4 mph 25.3 mph N/A   Overcast
2:35 AM 32.0 °F 21.2 °F 32.0 °F 100% 29.89 in 10.0 mi NNW 16.1 mph 24.2 mph N/A   Overcast
2:55 AM 32.0 °F 20.5 °F - N/A% 29.91 in 10.0 mi NW 18.4 mph 27.6 mph N/A   Overcast
3:15 AM 32.0 °F 21.2 °F 32.0 °F 100% 29.91 in 10.0 mi NW 16.1 mph 21.9 mph N/A   Overcast
3:35 AM 32.0 °F 20.5 °F - N/A% 29.93 in 10.0 mi NW 18.4 mph 28.8 mph N/A   Overcast
3:55 AM 32.0 °F 20.8 °F - N/A% 29.93 in 10.0 mi NW 17.3 mph 23.0 mph N/A   Overcast
4:15 AM 32.0 °F 22.5 °F 32.0 °F 100% 29.94 in 10.0 mi NW 12.7 mph 23.0 mph N/A   Overcast
4:35 AM 32.0 °F 23.0 °F 32.0 °F 100% 29.96 in 10.0 mi North 11.5 mph 21.9 mph N/A   Overcast
4:55 AM 32.0 °F 22.5 °F 32.0 °F 100% 29.97 in 10.0 mi NNW 12.7 mph 23.0 mph N/A   Overcast
5:15 AM 32.0 °F 21.2 °F 32.0 °F 100% 29.99 in 10.0 mi NNW 16.1 mph 24.2 mph N/A   Overcast
5:35 AM 32.0 °F 23.0 °F 30.2 °F 93% 30.00 in 10.0 mi NNW 11.5 mph 19.6 mph N/A   Overcast
5:55 AM 32.0 °F 21.6 °F 32.0 °F 100% 30.00 in 10.0 mi NNW 15.0 mph 18.4 mph N/A   Overcast
6:15 AM 32.0 °F 20.8 °F 30.2 °F 93% 30.01 in 10.0 mi NW 17.3 mph 21.9 mph N/A   Overcast
6:35 AM 30.2 °F 19.3 °F 28.4 °F 93% 30.02 in 10.0 mi NNW 15.0 mph 25.3 mph N/A   Mostly Cloudy
6:55 AM 32.0 °F 24.8 °F 30.2 °F 93% 30.03 in 10.0 mi NW 8.1 mph - N/A   Overcast
7:15 AM 30.2 °F 19.3 °F 28.4 °F 93% 30.05 in 10.0 mi NNW 15.0 mph - N/A   Overcast
7:35 AM 30.2 °F 19.8 °F 28.4 °F 93% 30.05 in 10.0 mi NNW 13.8 mph - N/A   Scattered Clouds
7:55 AM 30.2 °F 21.9 °F 28.4 °F 93% 30.06 in 10.0 mi NNW 9.2 mph 17.3 mph N/A   Mostly Cloudy
8:15 AM 30.2 °F 20.8 °F 28.4 °F 93% 30.07 in 10.0 mi North 11.5 mph 16.1 mph N/A   Mostly Cloudy
8:35 AM 32.0 °F 22.5 °F 28.4 °F 87% 30.08 in 10.0 mi North 12.7 mph - N/A   Mostly Cloudy
8:55 AM 32.0 °F 23.6 °F 28.4 °F 87% 30.08 in 10.0 mi NNW 10.4 mph - N/A   Scattered Clouds
9:15 AM 32.0 °F 24.2 °F 30.2 °F 93% 30.10 in 10.0 mi NW 9.2 mph - N/A   Mostly Cloudy
9:35 AM 32.0 °F 25.6 °F 28.4 °F 87% 30.10 in 10.0 mi NW 6.9 mph - N/A   Scattered Clouds
9:55 AM 32.0 °F 24.8 °F 28.4 °F 87% 30.10 in 10.0 mi NNW 8.1 mph - N/A   Clear
10:15 AM 32.0 °F 24.2 °F 28.4 °F 87% 30.10 in 10.0 mi NW 9.2 mph - N/A   Clear
10:35 AM 33.8 °F 27.7 °F 28.4 °F 81% 30.10 in 10.0 mi NW 6.9 mph - N/A   Clear
10:55 AM 33.8 °F 27.0 °F 26.6 °F 75% 30.12 in 10.0 mi West 8.1 mph - N/A   Clear
11:15 AM 33.8 °F 27.0 °F 26.6 °F 75% 30.13 in 10.0 mi WNW 8.1 mph - N/A   Clear
11:35 AM 35.6 °F 29.2 °F 26.6 °F 70% 30.14 in 10.0 mi NW 8.1 mph - N/A   Clear
11:55 AM 37.4 °F 32.1 °F 26.6 °F 65% 30.14 in 10.0 mi NW 6.9 mph - N/A   Clear
12:15 PM 37.4 °F 31.4 °F 28.4 °F 70% 30.13 in 10.0 mi WNW 8.1 mph - N/A   Clear
12:35 PM 37.4 °F 32.1 °F 26.6 °F 65% 30.13 in 10.0 mi WNW 6.9 mph - N/A   Clear
12:55 PM 39.2 °F 33.6 °F 26.6 °F 61% 30.12 in 10.0 mi NW 8.1 mph - N/A   Clear
1:15 PM 41.0 °F 37.1 °F 26.6 °F 57% 30.13 in 10.0 mi NW 5.8 mph 9.2 mph N/A   Clear
1:35 PM 41.0 °F 36.4 °F 26.6 °F 57% 30.12 in 10.0 mi West 6.9 mph - N/A   Clear
1:55 PM 41.0 °F 35.8 °F 28.4 °F 61% 30.12 in 10.0 mi NW 8.1 mph - N/A   Clear
2:15 PM 41.0 °F 39.0 °F 28.4 °F 61% 30.12 in 10.0 mi NNW 3.5 mph - N/A   Clear
2:35 PM 41.0 °F 37.1 °F 26.6 °F 57% 30.11 in 10.0 mi NW 5.8 mph - N/A   Clear
2:55 PM 41.0 °F 37.1 °F 28.4 °F 61% 30.11 in 10.0 mi North 5.8 mph - N/A   Clear
3:15 PM 41.0 °F 37.1 °F 28.4 °F 61% 30.09 in 10.0 mi North 5.8 mph - N/A   Clear
3:35 PM 41.0 °F 38.0 °F 26.6 °F 57% 30.09 in 10.0 mi NNW 4.6 mph - N/A   Clear
3:55 PM 41.0 °F 38.0 °F 26.6 °F 57% 30.08 in 10.0 mi NE 4.6 mph - N/A   Scattered Clouds
4:15 PM 41.0 °F 39.0 °F 26.6 °F 57% 30.10 in 10.0 mi WNW 3.5 mph - N/A   Scattered Clouds
4:35 PM 41.0 °F 37.1 °F 26.6 °F 57% 30.12 in 10.0 mi NW 5.8 mph - N/A   Clear
4:55 PM 41.0 °F 37.1 °F 28.4 °F 61% 30.13 in 10.0 mi NW 5.8 mph - N/A   Clear
5:15 PM 39.2 °F 37.0 °F 26.6 °F 61% 30.12 in 10.0 mi NNW 3.5 mph - N/A   Clear
5:35 PM 37.4 °F - 26.6 °F 65% 30.12 in 10.0 mi Calm Calm - N/A   Clear
5:55 PM 37.4 °F 34.9 °F 26.6 °F 65% 30.12 in 10.0 mi North 3.5 mph - N/A   Clear
6:15 PM 35.6 °F - 28.4 °F 75% 30.12 in 10.0 mi Calm Calm - N/A   Clear
6:35 PM 35.6 °F - 26.6 °F 70% 30.12 in 10.0 mi Calm Calm - N/A   Clear
6:55 PM 33.8 °F 30.8 °F 28.4 °F 81% 30.13 in 10.0 mi NNE 3.5 mph - N/A   Clear
7:15 PM 33.8 °F - 26.6 °F 75% 30.11 in 10.0 mi Calm Calm - N/A   Clear
7:35 PM 33.8 °F 28.6 °F 26.6 °F 75% 30.09 in 10.0 mi ESE 5.8 mph - N/A   Clear
7:55 PM 33.8 °F 30.8 °F 28.4 °F 81% 30.10 in 10.0 mi East 3.5 mph - N/A   Clear
8:15 PM 33.8 °F - 28.4 °F 81% 30.10 in 10.0 mi Calm Calm - N/A   Clear
8:35 PM 33.8 °F 30.8 °F 26.6 °F 75% 30.09 in 10.0 mi ESE 3.5 mph - N/A   Clear
8:55 PM 33.8 °F 30.8 °F 26.6 °F 75% 30.09 in 10.0 mi SE 3.5 mph - N/A   Clear
9:15 PM 33.8 °F 29.6 °F 26.6 °F 75% 30.08 in 10.0 mi SE 4.6 mph - N/A   Clear
9:35 PM 32.0 °F 26.4 °F 26.6 °F 80% 30.07 in 10.0 mi SE 5.8 mph - N/A   Clear
9:55 PM 32.0 °F 27.5 °F 28.4 °F 87% 30.08 in 10.0 mi East 4.6 mph - N/A   Clear
10:15 PM 33.8 °F 30.8 °F 26.6 °F 75% 30.09 in 10.0 mi SE 3.5 mph - N/A   Clear
10:35 PM 33.8 °F - 26.6 °F 75% 30.09 in 10.0 mi Calm Calm - N/A   Clear
10:55 PM 32.0 °F 28.7 °F 28.4 °F 87% 30.08 in 10.0 mi SE 3.5 mph - N/A   Clear
11:15 PM 33.8 °F 30.8 °F 26.6 °F 75% 30.08 in 10.0 mi SE 3.5 mph - N/A   Scattered Clouds
11:35 PM 32.0 °F - 30.2 °F 93% 30.09 in 10.0 mi Calm Calm - N/A   Clear
11:55 PM 32.0 °F 28.7 °F 30.2 °F 93% 30.09 in 10.0 mi North 3.5 mph - N/A   Scattered Clouds